,,Stat6,,Stat2,,Stat8,,Stat9,,Stat10,,Wind1,,Wind1,
time,status,PA1M_AVG,status,PR1M_SUM,status,RH1M_AVG,status,SR1M_AVG,status,TA1M_AVG,status,W1dAve1m,status,W1sAve1m,
2006-02-10, 00:00:00,VALID,920.107,VALID,0,VALID,90.9337,VALID,0.0509425,VALID,20.9028,VALID,294,VALID,0.164608,
2006-02-10, 00:01:00,VALID,920.091,VALID,0,VALID,91.1791,VALID,0.0509425,VALID,20.8648,VALID,294,VALID,0.127604,
2006-02-10, 00:02:00,VALID,920.076,VALID,0,VALID,91.2554,VALID,0.0509425,VALID,20.7862,VALID,7,VALID,0.566506,
2006-02-10, 00:03:00,VALID,920.042,VALID,0,VALID,91.4614,VALID,0.0509425,VALID,20.7064,VALID,37,VALID,0.512091,
2006-02-10, 00:04:00,VALID,920.002,VALID,0,VALID,91.8111,VALID,0.0509425,VALID,20.6243,VALID,37,VALID,0.0111607,
2006-02-10, 00:05:00,VALID,919.975,VALID,0,VALID,92.0464,VALID,0.0509425,VALID,20.6091,VALID,37,VALID,0,
2006-02-10, 00:06:00,VALID,919.93,VALID,0,VALID,92.1494,VALID,0.0509425,VALID,20.5823,VALID,37,VALID,0.101389,
2006-02-10, 00:07:00,VALID,919.899,VALID,0,VALID,92.2829,VALID,-0.0509425,VALID,20.5714,VALID,37,VALID,0.331845,
2006-02-10, 00:08:00,VALID,919.852,VALID,0,VALID,92.4863,VALID,-0.0679233,VALID,20.5453,VALID,37,VALID,0.4133,
2006-02-10, 00:09:00,VALID,919.826,VALID,0,VALID,92.48,VALID,-0.0679233,VALID,20.5326,VALID,152,VALID,0.52077,
2006-02-10, 00:10:00,VALID,919.805,VALID,0,VALID,92.4507,VALID,-0.0339617,VALID,20.5296,VALID,158,VALID,0.461133,
2006-02-10, 00:11:00,VALID,919.791,VALID,0,VALID,92.3744,VALID,-0.0509425,VALID,20.5461,VALID,159,VALID,0.518229,
2006-02-10, 00:12:00,VALID,919.764,VALID,0,VALID,92.2524,VALID,-0.0849042,VALID,20.5391,VALID,159,VALID,0.68407,
2006-02-10, 00:13:00,VALID,919.761,VALID,0,VALID,92.3096,VALID,-0.0509425,VALID,20.51,VALID,158,VALID,0.697311,
2006-02-10, 00:14:00,VALID,919.746,VALID,0,VALID,92.5614,VALID,-0.0339617,VALID,20.468,VALID,158,VALID,0.518111,
2006-02-10, 00:15:00,VALID,919.754,VALID,0,VALID,92.6491,VALID,-0.0509425,VALID,20.4327,VALID,157,VALID,0.489258,
2006-02-10, 00:16:00,VALID,919.759,VALID,0,VALID,92.9047,VALID,-0.0509425,VALID,20.3842,VALID,129,VALID,0.597929,
2006-02-10, 00:17:00,VALID,919.768,VALID,0,VALID,93.2607,VALID,0,VALID,20.3456,VALID,109,VALID,0.713663,
2006-02-10, 00:18:00,VALID,919.765,VALID,0,VALID,93.51,VALID,-0.0679233,VALID,20.3155,VALID,89,VALID,0.859028,
2006-02-10, 00:19:00,VALID,919.768,VALID,0,VALID,93.4985,VALID,-0.0509425,VALID,20.3354,VALID,75,VALID,0.946378,
2006-02-10, 00:20:00,VALID,919.743,VALID,0,VALID,93.3879,VALID,-0.0849042,VALID,20.3777,VALID,75,VALID,0.873047,
2006-02-10, 00:21:00,VALID,919.717,VALID,0,VALID,93.3574,VALID,-0.0679233,VALID,20.423,VALID,75,VALID,0.849653,
2006-02-10, 00:22:00,VALID,919.675,VALID,0,VALID,93.1183,VALID,0,VALID,20.4736,VALID,75,VALID,0.678472,
2006-02-10, 00:23:00,VALID,919.636,VALID,0,VALID,92.8411,VALID,0.0169808,VALID,20.5251,VALID,75,VALID,0.539971,
2006-02-10, 00:24:00,VALID,919.595,VALID,0,VALID,92.5995,VALID,0,VALID,20.5701,VALID,75,VALID,0.384859,
2006-02-10, 00:25:00,VALID,919.562,VALID,0,VALID,92.4762,VALID,0.0339617,VALID,20.5835,VALID,75,VALID,0.33718,
2006-02-10, 00:26:00,VALID,919.541,VALID,0,VALID,92.3961,VALID,0.0339617,VALID,20.6057,VALID,75,VALID,0.200581,
2006-02-10, 00:27:00,VALID,919.512,VALID,0,VALID,92.2333,VALID,0.0509425,VALID,20.6119,VALID,75,VALID,0,
2006-02-10, 00:28:00,VALID,919.508,VALID,0,VALID,92.1913,VALID,0,VALID,20.6353,VALID,75,VALID,0.0301067,
2006-02-10, 00:29:00,VALID,919.483,VALID,0,VALID,92.2664,VALID,0.0339617,VALID,20.6285,VALID,75,VALID,0,
2006-02-10, 00:30:00,VALID,919.47,VALID,0,VALID,92.2473,VALID,0.0169808,VALID,20.6091,VALID,75,VALID,0,
2006-02-10, 00:31:00,VALID,919.447,VALID,0,VALID,92.204,VALID,0.0169808,VALID,20.5962,VALID,75,VALID,0,
2006-02-10, 00:32:00,VALID,919.44,VALID,0,VALID,92.246,VALID,0.0679233,VALID,20.5577,VALID,75,VALID,0,
2006-02-10, 00:33:00,VALID,919.42,VALID,0,VALID,92.4444,VALID,0.0339617,VALID,20.5386,VALID,75,VALID,0,
2006-02-10, 00:34:00,VALID,919.407,VALID,0,VALID,92.5804,VALID,0.0339617,VALID,20.5149,VALID,75,VALID,0,
2006-02-10, 00:35:00,VALID,919.39,VALID,0,VALID,92.7012,VALID,0.0339617,VALID,20.4955,VALID,75,VALID,0,
2006-02-10, 00:36:00,VALID,919.385,VALID,0,VALID,92.8577,VALID,0.0509425,VALID,20.4895,VALID,75,VALID,0,
2006-02-10, 00:37:00,VALID,919.382,VALID,0,VALID,93.1311,VALID,0.0339617,VALID,20.4502,VALID,75,VALID,0.35026,
2006-02-10, 00:38:00,VALID,919.371,VALID,0,VALID,93.4095,VALID,0.0339617,VALID,20.4408,VALID,75,VALID,0.721418,
2006-02-10, 00:39:00,VALID,919.358,VALID,0,VALID,93.5265,VALID,0.0339617,VALID,20.4381,VALID,75,VALID,0.902902,
2006-02-10, 00:40:00,VALID,919.348,VALID,0,VALID,93.5507,VALID,0.0169808,VALID,20.4349,VALID,83,VALID,0.93099,
2006-02-10, 00:41:00,VALID,919.339,VALID,0,VALID,93.5939,VALID,0.0339617,VALID,20.4413,VALID,87,VALID,0.990189,
2006-02-10, 00:42:00,VALID,919.316,VALID,0,VALID,93.5532,VALID,0,VALID,20.4572,VALID,94,VALID,1.03871,
2006-02-10, 00:43:00,VALID,919.294,VALID,0,VALID,93.5647,VALID,0.0169808,VALID,20.4405,VALID,99,VALID,1.14705,
2006-02-10, 00:44:00,VALID,919.27,VALID,0,VALID,93.6066,VALID,-0.0169808,VALID,20.4351,VALID,106,VALID,1.13002,
2006-02-10, 00:45:00,VALID,919.244,VALID,0,VALID,93.6181,VALID,0,VALID,20.4217,VALID,116,VALID,1.2513,
2006-02-10, 00:46:00,VALID,919.218,VALID,0,VALID,93.6575,VALID,0,VALID,20.3956,VALID,118,VALID,1.20472,
2006-02-10, 00:47:00,VALID,919.186,VALID,0,VALID,93.9728,VALID,0.0339617,VALID,20.357,VALID,122,VALID,1.35379,
2006-02-10, 00:48:00,VALID,919.166,VALID,0,VALID,94.0746,VALID,0,VALID,20.3438,VALID,113,VALID,1.0696,
2006-02-10, 00:49:00,VALID,919.136,VALID,0,VALID,94.0847,VALID,0,VALID,20.318,VALID,98,VALID,0.813672,
2006-02-10, 00:50:00,VALID,919.104,VALID,0,VALID,94.1153,VALID,0.0169808,VALID,20.3021,VALID,86,VALID,0.832741,
2006-02-10, 00:51:00,VALID,919.067,VALID,0,VALID,93.9576,VALID,0.0169808,VALID,20.2471,VALID,77,VALID,0.786585,
2006-02-10, 00:52:00,VALID,919.041,VALID,0,VALID,94.0809,VALID,0.0679233,VALID,20.1596,VALID,69,VALID,1.13299,
2006-02-10, 00:53:00,VALID,919,VALID,0,VALID,94.381,VALID,0.0169808,VALID,20.1049,VALID,66,VALID,1.19754,
2006-02-10, 00:54:00,VALID,918.937,VALID,0,VALID,94.5502,VALID,0,VALID,20.0336,VALID,49,VALID,1.24581,
2006-02-10, 00:55:00,VALID,918.88,VALID,0,VALID,94.8604,VALID,0,VALID,19.963,VALID,56,VALID,1.21855,
2006-02-10, 00:56:00,VALID,918.851,VALID,0,VALID,95.4047,VALID,0.0169808,VALID,19.9336,VALID,77,VALID,0.985491,
2006-02-10, 00:57:00,VALID,918.797,VALID,0,VALID,95.6132,VALID,0,VALID,19.9498,VALID,79,VALID,1.01509,
2006-02-10, 00:58:00,VALID,918.76,VALID,0,VALID,95.4441,VALID,0.0679233,VALID,19.9918,VALID,70,VALID,1.16443,
2006-02-10, 00:59:00,VALID,918.742,VALID,0,VALID,95.0524,VALID,0,VALID,20.0627,VALID,71,VALID,0.865625,
2006-02-10, 01:00:00,VALID,918.719,VALID,0,VALID,94.6366,VALID,0.0169808,VALID,20.1082,VALID,66,VALID,0.774709,
2006-02-10, 01:01:00,VALID,918.694,VALID,0,VALID,94.4942,VALID,0.0169808,VALID,20.1467,VALID,74,VALID,0.781641,
2006-02-10, 01:02:00,VALID,918.687,VALID,0,VALID,94.4192,VALID,0.0169808,VALID,20.1989,VALID,77,VALID,0.592685,
2006-02-10, 01:03:00,VALID,918.676,VALID,0,VALID,94.1687,VALID,0,VALID,20.2501,VALID,79,VALID,0.563643,
2006-02-10, 01:04:00,VALID,918.665,VALID,0,VALID,93.8724,VALID,0,VALID,20.2889,VALID,94,VALID,0.499822,
2006-02-10, 01:05:00,VALID,918.665,VALID,0,VALID,93.6384,VALID,0,VALID,20.3312,VALID,94,VALID,0.293605,
2006-02-10, 01:06:00,VALID,918.661,VALID,0,VALID,93.435,VALID,0.0169808,VALID,20.3672,VALID,97,VALID,0.286519,
2006-02-10, 01:07:00,VALID,918.67,VALID,0,VALID,93.365,VALID,0.0169808,VALID,20.3672,VALID,101,VALID,0.338415,
2006-02-10, 01:08:00,VALID,918.668,VALID,0,VALID,93.1845,VALID,0,VALID,20.3538,VALID,107,VALID,0.220353,
2006-02-10, 01:09:00,VALID,918.66,VALID,0,VALID,93.3192,VALID,0.0339617,VALID,20.3252,VALID,161,VALID,0.425586,
2006-02-10, 01:10:00,VALID,918.65,VALID,0,VALID,93.7452,VALID,0,VALID,20.2501,VALID,232,VALID,0.446265,
2006-02-10, 01:11:00,VALID,918.635,VALID,0,VALID,94.0835,VALID,0.0169808,VALID,20.228,VALID,232,VALID,0.372768,
2006-02-10, 01:12:00,VALID,918.616,VALID,0,VALID,94.2373,VALID,0.0169808,VALID,20.2479,VALID,232,VALID,0.426847,
2006-02-10, 01:13:00,VALID,918.597,VALID,0,VALID,94.2946,VALID,0.0169808,VALID,20.2474,VALID,232,VALID,0.347384,
2006-02-10, 01:14:00,VALID,918.59,VALID,0,VALID,94.3353,VALID,0.0339617,VALID,20.2727,VALID,232,VALID,0.15554,
2006-02-10, 01:15:00,VALID,918.577,VALID,0,VALID,94.2221,VALID,0.0169808,VALID,20.2862,VALID,232,VALID,0.0716463,
2006-02-10, 01:16:00,VALID,918.557,VALID,0,VALID,94.0771,VALID,0.0169808,VALID,20.2961,VALID,232,VALID,0.115663,
2006-02-10, 01:17:00,VALID,918.556,VALID,0,VALID,94.1534,VALID,0.0169808,VALID,20.2996,VALID,232,VALID,0.142805,
2006-02-10, 01:18:00,VALID,918.547,VALID,0,VALID,94.1051,VALID,-0.0169808,VALID,20.3158,VALID,232,VALID,0.0433594,
2006-02-10, 01:19:00,VALID,918.541,VALID,0,VALID,93.8597,VALID,0.0169808,VALID,20.3023,VALID,232,VALID,0,
2006-02-10, 01:20:00,VALID,918.523,VALID,0,VALID,93.8406,VALID,0,VALID,20.2735,VALID,232,VALID,0.024891,
2006-02-10, 01:21:00,VALID,918.521,VALID,0,VALID,94.362,VALID,-0.0169808,VALID,20.2479,VALID,167,VALID,0.551897,
2006-02-10, 01:22:00,VALID,918.505,VALID,0,VALID,94.6112,VALID,0.0169808,VALID,20.2638,VALID,125,VALID,0.763757,
2006-02-10, 01:23:00,VALID,918.489,VALID,0,VALID,94.5603,VALID,0.0169808,VALID,20.3153,VALID,145,VALID,0.740854,
2006-02-10, 01:24:00,VALID,918.469,VALID,0,VALID,93.9398,VALID,0,VALID,20.4025,VALID,138,VALID,0.0711806,
2006-02-10, 01:25:00,VALID,918.463,VALID,0,VALID,93.4693,VALID,0,VALID,20.4545,VALID,138,VALID,0.179874,
2006-02-10, 01:26:00,VALID,918.461,VALID,0,VALID,92.9289,VALID,0.0339617,VALID,20.4478,VALID,138,VALID,0.128125,
2006-02-10, 01:27:00,VALID,918.456,VALID,0,VALID,93.3854,VALID,0.0169808,VALID,20.4314,VALID,138,VALID,0,
2006-02-10, 01:28:00,VALID,918.447,VALID,0,VALID,93.6079,VALID,-0.0339617,VALID,20.4739,VALID,138,VALID,0.00590278,
2006-02-10, 01:29:00,VALID,918.443,VALID,0,VALID,93.421,VALID,0.0169808,VALID,20.5127,VALID,138,VALID,0.185683,
2006-02-10, 01:30:00,VALID,918.438,VALID,0,VALID,93.4668,VALID,0.0509425,VALID,20.5483,VALID,124,VALID,0.641768,
2006-02-10, 01:31:00,VALID,918.427,VALID,0,VALID,93.2582,VALID,-0.0169808,VALID,20.6226,VALID,115,VALID,0.664444,
2006-02-10, 01:32:00,VALID,918.398,VALID,0,VALID,92.8958,VALID,0,VALID,20.7037,VALID,111,VALID,0.679315,
2006-02-10, 01:33:00,VALID,918.366,VALID,0,VALID,92.6377,VALID,0,VALID,20.7487,VALID,108,VALID,0.448219,
2006-02-10, 01:34:00,VALID,918.339,VALID,0,VALID,92.466,VALID,0,VALID,20.7813,VALID,113,VALID,0.467187,
2006-02-10, 01:35:00,VALID,918.298,VALID,0,VALID,92.3973,VALID,0,VALID,20.7813,VALID,145,VALID,0.522135,
2006-02-10, 01:36:00,VALID,918.286,VALID,0,VALID,92.4342,VALID,-0.0339617,VALID,20.7775,VALID,149,VALID,0.593564,
2006-02-10, 01:37:00,VALID,918.273,VALID,0,VALID,92.4698,VALID,0.0169808,VALID,20.7797,VALID,149,VALID,0.568555,
2006-02-10, 01:38:00,VALID,918.273,VALID,0,VALID,92.4113,VALID,0.0509425,VALID,20.8152,VALID,149,VALID,0.305753,
2006-02-10, 01:39:00,VALID,918.276,VALID,0,VALID,92.2867,VALID,0.0679233,VALID,20.8349,VALID,149,VALID,0.285334,
2006-02-10, 01:40:00,VALID,918.292,VALID,0,VALID,92.1227,VALID,0.0509425,VALID,20.8406,VALID,149,VALID,0.28032,
2006-02-10, 01:41:00,VALID,918.29,VALID,0,VALID,92.1125,VALID,0.101885,VALID,20.8373,VALID,149,VALID,0.275981,
2006-02-10, 01:42:00,VALID,918.299,VALID,0,VALID,92.0718,VALID,0.0509425,VALID,20.857,VALID,149,VALID,0.037064,
2006-02-10, 01:43:00,VALID,918.288,VALID,0,VALID,91.9828,VALID,0.0509425,VALID,20.8729,VALID,160,VALID,0.206499,
2006-02-10, 01:44:00,VALID,918.28,VALID,0,VALID,91.8455,VALID,0.0849042,VALID,20.9023,VALID,171,VALID,0.348611,
2006-02-10, 01:45:00,VALID,918.267,VALID,0,VALID,91.7577,VALID,0.0849042,VALID,20.9085,VALID,171,VALID,0.269727,
2006-02-10, 01:46:00,VALID,918.24,VALID,0,VALID,91.7132,VALID,0.0509425,VALID,20.9182,VALID,171,VALID,0.0181686,
2006-02-10, 01:47:00,VALID,918.232,VALID,0,VALID,91.6509,VALID,0.0679233,VALID,20.9381,VALID,171,VALID,0.0550426,
2006-02-10, 01:48:00,VALID,918.216,VALID,0,VALID,91.5441,VALID,0.0509425,VALID,20.9604,VALID,171,VALID,0.228516,
2006-02-10, 01:49:00,VALID,918.207,VALID,0,VALID,91.4068,VALID,0.0509425,VALID,20.9502,VALID,171,VALID,0.358789,
2006-02-10, 01:50:00,VALID,918.222,VALID,0,VALID,91.5797,VALID,0.0679233,VALID,20.9346,VALID,171,VALID,0.478981,
2006-02-10, 01:51:00,VALID,918.209,VALID,0,VALID,91.8277,VALID,0.0509425,VALID,20.8829,VALID,166,VALID,0.738467,
2006-02-10, 01:52:00,VALID,918.203,VALID,0,VALID,92.012,VALID,0.101885,VALID,20.8277,VALID,169,VALID,1.0252,
2006-02-10, 01:53:00,VALID,918.202,VALID,0,VALID,92.2231,VALID,0.0679233,VALID,20.7889,VALID,163,VALID,0.953472,
2006-02-10, 01:54:00,VALID,918.208,VALID,0,VALID,92.4685,VALID,0.0339617,VALID,20.7498,VALID,167,VALID,1.06789,
2006-02-10, 01:55:00,VALID,918.199,VALID,0,VALID,92.616,VALID,0.101885,VALID,20.7339,VALID,167,VALID,0.983817,
2006-02-10, 01:56:00,VALID,918.197,VALID,0,VALID,92.7,VALID,0.0849042,VALID,20.7309,VALID,163,VALID,0.90282,
2006-02-10, 01:57:00,VALID,918.184,VALID,0,VALID,92.7305,VALID,0.0509425,VALID,20.721,VALID,143,VALID,0.485305,
2006-02-10, 01:58:00,VALID,918.164,VALID,0,VALID,92.6911,VALID,0.0679233,VALID,20.7366,VALID,136,VALID,0.755556,
2006-02-10, 01:59:00,VALID,918.142,VALID,0,VALID,92.7458,VALID,0.0679233,VALID,20.7267,VALID,147,VALID,0.972929,
2006-02-10, 02:00:00,VALID,918.126,VALID,0,VALID,92.8844,VALID,0.0849042,VALID,20.7043,VALID,147,VALID,1.06287,
2006-02-10, 02:01:00,VALID,918.104,VALID,0,VALID,92.939,VALID,0.0849042,VALID,20.7013,VALID,145,VALID,0.91867,
2006-02-10, 02:02:00,VALID,918.075,VALID,0,VALID,93.0293,VALID,0.0849042,VALID,20.6879,VALID,142,VALID,0.844494,
2006-02-10, 02:03:00,VALID,918.051,VALID,0,VALID,93.1069,VALID,0.0679233,VALID,20.6854,VALID,137,VALID,0.627858,
2006-02-10, 02:04:00,VALID,918.026,VALID,0,VALID,93.187,VALID,0.0679233,VALID,20.659,VALID,142,VALID,0.617932,
2006-02-10, 02:05:00,VALID,918.001,VALID,0,VALID,93.2671,VALID,0.0679233,VALID,20.6526,VALID,143,VALID,0.269627,
2006-02-10, 02:06:00,VALID,917.987,VALID,0,VALID,93.3167,VALID,0.0849042,VALID,20.63,VALID,130,VALID,0.286399,
2006-02-10, 02:07:00,VALID,917.972,VALID,0,VALID,93.4172,VALID,-0.0339617,VALID,20.6194,VALID,130,VALID,0.253125,
2006-02-10, 02:08:00,VALID,917.969,VALID,0,VALID,93.5952,VALID,-0.0509425,VALID,20.5997,VALID,110,VALID,0.617543,
2006-02-10, 02:09:00,VALID,917.975,VALID,0,VALID,93.7834,VALID,0,VALID,20.5927,VALID,103,VALID,0.822856,
2006-02-10, 02:10:00,VALID,917.969,VALID,0,VALID,93.7185,VALID,-0.0169808,VALID,20.6258,VALID,108,VALID,0.66276,
2006-02-10, 02:11:00,VALID,917.98,VALID,0,VALID,93.7058,VALID,-0.0339617,VALID,20.6318,VALID,102,VALID,0.59013,
2006-02-10, 02:12:00,VALID,917.974,VALID,0,VALID,93.6549,VALID,-0.0339617,VALID,20.652,VALID,86,VALID,0.740234,
2006-02-10, 02:13:00,VALID,917.983,VALID,0,VALID,93.6143,VALID,0,VALID,20.6482,VALID,69,VALID,0.682884,
2006-02-10, 02:14:00,VALID,917.971,VALID,0,VALID,93.6855,VALID,-0.0169808,VALID,20.6121,VALID,71,VALID,0.614583,
2006-02-10, 02:15:00,VALID,917.95,VALID,0,VALID,93.9881,VALID,0,VALID,20.5828,VALID,109,VALID,0.798147,
2006-02-10, 02:16:00,VALID,917.917,VALID,0,VALID,94.114,VALID,-0.0849042,VALID,20.5733,VALID,119,VALID,0.801711,
2006-02-10, 02:17:00,VALID,917.892,VALID,0,VALID,94.2348,VALID,0,VALID,20.5607,VALID,130,VALID,0.84375,
2006-02-10, 02:18:00,VALID,917.866,VALID,0,VALID,94.4675,VALID,-0.0339617,VALID,20.538,VALID,130,VALID,0.706555,
2006-02-10, 02:19:00,VALID,917.857,VALID,0,VALID,94.6582,VALID,-0.0169808,VALID,20.499,VALID,130,VALID,0.583841,
2006-02-10, 02:20:00,VALID,917.85,VALID,0,VALID,94.8579,VALID,-0.0169808,VALID,20.454,VALID,130,VALID,0.682546,
2006-02-10, 02:21:00,VALID,917.837,VALID,0,VALID,95.0016,VALID,-0.0339617,VALID,20.4443,VALID,130,VALID,0.612464,
2006-02-10, 02:22:00,VALID,917.83,VALID,0,VALID,95.2025,VALID,0.0169808,VALID,20.4053,VALID,130,VALID,0.801417,
2006-02-10, 02:23:00,VALID,917.809,VALID,0,VALID,95.4098,VALID,0.0169808,VALID,20.363,VALID,137,VALID,1.00234,
2006-02-10, 02:24:00,VALID,917.784,VALID,0,VALID,95.5089,VALID,0,VALID,20.3533,VALID,140,VALID,0.891741,
2006-02-10, 02:25:00,VALID,917.774,VALID,0,VALID,95.57,VALID,-0.0169808,VALID,20.3471,VALID,140,VALID,1.03001,
2006-02-10, 02:26:00,VALID,917.761,VALID,0,VALID,95.5369,VALID,0.0169808,VALID,20.3433,VALID,136,VALID,0.981105,
2006-02-10, 02:27:00,VALID,917.749,VALID,0,VALID,95.4835,VALID,0,VALID,20.3404,VALID,130,VALID,1.05877,
2006-02-10, 02:28:00,VALID,917.746,VALID,0,VALID,95.4352,VALID,-0.0169808,VALID,20.357,VALID,129,VALID,0.713728,
2006-02-10, 02:29:00,VALID,917.731,VALID,0,VALID,95.3538,VALID,-0.0169808,VALID,20.3762,VALID,126,VALID,1.04913,
2006-02-10, 02:30:01,VALID,917.73,VALID,0,VALID,95.2076,VALID,0.0169808,VALID,20.4217,VALID,121,VALID,1.18928,
2006-02-10, 02:31:00,VALID,917.717,VALID,0,VALID,95.0219,VALID,-0.0339617,VALID,20.447,VALID,122,VALID,1.113,
2006-02-10, 02:32:01,VALID,917.686,VALID,0,VALID,94.8884,VALID,-0.0679233,VALID,20.4925,VALID,118,VALID,0.896391,
2006-02-10, 02:33:01,VALID,917.654,VALID,0,VALID,94.7498,VALID,-0.0339617,VALID,20.5216,VALID,113,VALID,1.32679,
2006-02-10, 02:34:00,VALID,917.622,VALID,0,VALID,94.5845,VALID,-0.0339617,VALID,20.5639,VALID,110,VALID,1.37109,
2006-02-10, 02:35:00,VALID,917.602,VALID,0,VALID,94.4039,VALID,-0.0339617,VALID,20.5927,VALID,95,VALID,1.14164,
2006-02-10, 02:36:00,VALID,917.578,VALID,0,VALID,94.2742,VALID,-0.0169808,VALID,20.6186,VALID,101,VALID,1.01308,
2006-02-10, 02:37:00,VALID,917.555,VALID,0,VALID,94.2157,VALID,0.0339617,VALID,20.6347,VALID,92,VALID,0.963281,
2006-02-10, 02:38:00,VALID,917.554,VALID,0,VALID,94.2056,VALID,0.0339617,VALID,20.6285,VALID,96,VALID,1.15189,
2006-02-10, 02:39:01,VALID,917.559,VALID,0,VALID,94.2412,VALID,0.0339617,VALID,20.6121,VALID,103,VALID,0.868278,
2006-02-10, 02:40:00,VALID,917.533,VALID,0,VALID,94.3175,VALID,0.0169808,VALID,20.6,VALID,104,VALID,0.873884,
2006-02-10, 02:41:00,VALID,917.524,VALID,0,VALID,94.4205,VALID,0.0169808,VALID,20.5701,VALID,106,VALID,0.817951,
2006-02-10, 02:42:00,VALID,917.53,VALID,0,VALID,94.4599,VALID,0.0509425,VALID,20.551,VALID,110,VALID,0.813058,
2006-02-10, 02:43:00,VALID,917.512,VALID,0,VALID,94.5756,VALID,0.0339617,VALID,20.5219,VALID,113,VALID,0.869243,
2006-02-10, 02:44:00,VALID,917.501,VALID,0,VALID,94.7053,VALID,0.0509425,VALID,20.5057,VALID,122,VALID,1.01243,
2006-02-10, 02:45:00,VALID,917.466,VALID,0,VALID,94.8325,VALID,0.0339617,VALID,20.4868,VALID,118,VALID,0.975991,
2006-02-10, 02:46:00,VALID,917.453,VALID,0,VALID,94.9456,VALID,0.0169808,VALID,20.4411,VALID,121,VALID,0.710156,
2006-02-10, 02:47:00,VALID,917.442,VALID,0,VALID,95.1262,VALID,0.0509425,VALID,20.419,VALID,118,VALID,0.849564,
2006-02-10, 02:48:01,VALID,917.422,VALID,0,VALID,95.308,VALID,0,VALID,20.3826,VALID,108,VALID,0.879092,
2006-02-10, 02:49:01,VALID,917.414,VALID,0,VALID,95.4021,VALID,0.0169808,VALID,20.3608,VALID,106,VALID,0.674665,
2006-02-10, 02:50:00,VALID,917.417,VALID,0,VALID,95.4822,VALID,0,VALID,20.315,VALID,109,VALID,0.42024,
2006-02-10, 02:51:00,VALID,917.42,VALID,0,VALID,95.5674,VALID,0.0509425,VALID,20.276,VALID,69,VALID,0.597461,
2006-02-10, 02:52:00,VALID,917.429,VALID,0,VALID,95.8357,VALID,0.0169808,VALID,20.273,VALID,87,VALID,0.417969,
2006-02-10, 02:53:01,VALID,917.447,VALID,0,VALID,95.8981,VALID,0.0169808,VALID,20.2665,VALID,87,VALID,0.242867,
2006-02-10, 02:54:00,VALID,917.472,VALID,0,VALID,95.8841,VALID,0.0169808,VALID,20.277,VALID,95,VALID,0.371264,
2006-02-10, 02:55:01,VALID,917.487,VALID,0,VALID,95.7404,VALID,-0.0169808,VALID,20.267,VALID,122,VALID,0.201953,
2006-02-10, 02:56:01,VALID,917.523,VALID,0,VALID,95.4975,VALID,0,VALID,20.2743,VALID,122,VALID,0.193714,
2006-02-10, 02:57:01,VALID,917.538,VALID,0,VALID,95.4492,VALID,0,VALID,20.2412,VALID,122,VALID,0.0977471,
2006-02-10, 02:58:00,VALID,917.553,VALID,0,VALID,95.4797,VALID,0.0169808,VALID,20.2186,VALID,122,VALID,0.0275213,
2006-02-10, 02:59:00,VALID,917.551,VALID,0,VALID,95.7709,VALID,0.0509425,VALID,20.2056,VALID,122,VALID,0.0195313,
2006-02-10, 03:00:00,VALID,917.546,VALID,0,VALID,95.8332,VALID,0.0339617,VALID,20.2054,VALID,122,VALID,0.0426829,
2006-02-10, 03:01:00,VALID,917.528,VALID,0,VALID,95.6971,VALID,0.0169808,VALID,20.2188,VALID,122,VALID,0,
2006-02-10, 03:02:00,VALID,917.515,VALID,0,VALID,95.617,VALID,0.0169808,VALID,20.222,VALID,122,VALID,0.0118096,
2006-02-10, 03:03:00,VALID,917.506,VALID,0,VALID,95.5776,VALID,0.0169808,VALID,20.2409,VALID,122,VALID,0.0817454,
2006-02-10, 03:04:00,VALID,917.495,VALID,0,VALID,95.5611,VALID,0.0169808,VALID,20.28,VALID,140,VALID,0.367374,
2006-02-10, 03:05:00,VALID,917.508,VALID,0,VALID,95.5331,VALID,-0.0169808,VALID,20.3093,VALID,182,VALID,0.637835,
2006-02-10, 03:06:01,VALID,917.531,VALID,0,VALID,95.57,VALID,0,VALID,20.316,VALID,220,VALID,0.577324,
2006-02-10, 03:07:00,VALID,917.542,VALID,0,VALID,95.5535,VALID,0.0169808,VALID,20.3063,VALID,220,VALID,0.176736,
2006-02-10, 03:08:00,VALID,917.56,VALID,0,VALID,95.4505,VALID,0,VALID,20.2964,VALID,220,VALID,0.391158,
2006-02-10, 03:09:00,VALID,917.574,VALID,0,VALID,95.3729,VALID,-0.0169808,VALID,20.2867,VALID,220,VALID,0.447218,
2006-02-10, 03:10:00,VALID,917.585,VALID,0,VALID,95.4301,VALID,0,VALID,20.274,VALID,203,VALID,0.32706,
2006-02-10, 03:11:00,VALID,917.58,VALID,0,VALID,95.2457,VALID,0,VALID,20.2641,VALID,190,VALID,0.549805,
2006-02-10, 03:12:00,VALID,917.576,VALID,0,VALID,95.1135,VALID,-0.0169808,VALID,20.2248,VALID,181,VALID,0.714753,
2006-02-10, 03:13:01,VALID,917.558,VALID,0,VALID,95.4441,VALID,0.0169808,VALID,20.2186,VALID,206,VALID,0.664621,
2006-02-10, 03:14:00,VALID,917.544,VALID,0,VALID,95.5713,VALID,0,VALID,20.2385,VALID,177,VALID,0.680088,
2006-02-10, 03:15:00,VALID,917.517,VALID,0,VALID,95.4733,VALID,-0.0339617,VALID,20.2516,VALID,183,VALID,0.648251,
2006-02-10, 03:16:01,VALID,917.48,VALID,0,VALID,95.4695,VALID,0,VALID,20.2581,VALID,178,VALID,0.833333,
2006-02-10, 03:17:00,VALID,917.451,VALID,0,VALID,95.3691,VALID,0,VALID,20.2546,VALID,178,VALID,0.711846,
2006-02-10, 03:18:01,VALID,917.437,VALID,0,VALID,95.3665,VALID,-0.0169808,VALID,20.2387,VALID,178,VALID,0.607955,
2006-02-10, 03:19:01,VALID,917.436,VALID,0,VALID,95.4683,VALID,0,VALID,20.2231,VALID,166,VALID,0.513889,
2006-02-10, 03:20:00,VALID,917.438,VALID,0,VALID,95.5242,VALID,0,VALID,20.2029,VALID,157,VALID,0.549805,
2006-02-10, 03:21:00,VALID,917.422,VALID,0,VALID,95.6781,VALID,0.0169808,VALID,20.1865,VALID,154,VALID,0.510938,
2006-02-10, 03:22:01,VALID,917.429,VALID,0,VALID,95.7645,VALID,0.0169808,VALID,20.18,VALID,158,VALID,0.461328,
2006-02-10, 03:23:01,VALID,917.409,VALID,0,VALID,95.8179,VALID,-0.0339617,VALID,20.1741,VALID,158,VALID,0.397396,
2006-02-10, 03:24:01,VALID,917.413,VALID,0,VALID,95.9006,VALID,0,VALID,20.1733,VALID,162,VALID,0.473895,
2006-02-10, 03:25:00,VALID,917.394,VALID,0,VALID,95.8853,VALID,-0.0169808,VALID,20.1768,VALID,162,VALID,0.27939,
2006-02-10, 03:26:00,VALID,917.388,VALID,0,VALID,95.8561,VALID,-0.0169808,VALID,20.1609,VALID,162,VALID,0.0625,
2006-02-10, 03:27:00,VALID,917.36,VALID,0,VALID,95.9527,VALID,0.0169808,VALID,20.1641,VALID,162,VALID,0.0490057,
2006-02-10, 03:28:00,VALID,917.316,VALID,0,VALID,96.0761,VALID,0,VALID,20.1507,VALID,162,VALID,0.258575,
2006-02-10, 03:29:00,VALID,917.28,VALID,0,VALID,96.1168,VALID,0.0339617,VALID,20.1604,VALID,162,VALID,0.389382,
2006-02-10, 03:30:00,VALID,917.257,VALID,0,VALID,96.0761,VALID,0.0169808,VALID,20.1698,VALID,162,VALID,0.426448,
2006-02-10, 03:31:01,VALID,917.242,VALID,0,VALID,96.1269,VALID,0.0339617,VALID,20.1765,VALID,156,VALID,0.578516,
2006-02-10, 03:32:01,VALID,917.249,VALID,0,VALID,96.0964,VALID,-0.0169808,VALID,20.1798,VALID,141,VALID,0.528582,
2006-02-10, 03:33:00,VALID,917.261,VALID,0,VALID,96.0481,VALID,0,VALID,20.1765,VALID,134,VALID,0.724219,
2006-02-10, 03:34:01,VALID,917.28,VALID,0,VALID,96.0761,VALID,0.0509425,VALID,20.1768,VALID,127,VALID,0.679142,
2006-02-10, 03:35:00,VALID,917.307,VALID,0,VALID,96.1117,VALID,0,VALID,20.187,VALID,106,VALID,0.646257,